| time (UTC) | temp F | wind direction | speed knots | gust knots | rain 1hr in | rain 24hr in | rain mn in | humidity % | barometer mb |
| 20260510095036 | 69 | 168 | 2.6 | 7.8 | 0.00 | 0.01 | 0.00 | 86 | 1010.4 |
| 20260510094016 | 69 | 160 | 2.6 | 7.0 | 0.00 | 0.02 | 0.00 | 86 | 1010.3 |
| 20260510093016 | 70 | 150 | 2.6 | 7.0 | 0.00 | 0.03 | 0.00 | 85 | 1010.2 |
| 20260510092016 | 70 | 156 | 3.5 | 7.0 | 0.00 | 0.03 | 0.00 | 84 | 1010.2 |
| 20260510091017 | 70 | 157 | 3.5 | 7.0 | 0.00 | 0.03 | 0.00 | 84 | 1010.2 |
| 20260510090017 | 70 | 158 | 3.5 | 7.8 | 0.00 | 0.03 | 0.00 | 83 | 1010.3 |
| 20260510085017 | 70 | 161 | 2.6 | 7.8 | 0.00 | 0.05 | 0.00 | 83 | 1010.3 |
| 20260510084017 | 70 | 158 | 2.6 | 6.1 | 0.00 | 0.14 | 0.00 | 84 | 1010.4 |
| 20260510083037 | 70 | 150 | 2.6 | 5.2 | 0.00 | 0.75 | 0.00 | 83 | 1010.4 |
| 20260510082017 | 70 | 158 | 2.6 | 6.1 | 0.00 | 1.65 | 0.00 | 82 | 1010.3 |
| 20260510081018 | 71 | 162 | 2.6 | 6.1 | 0.00 | 1.71 | 0.00 | 81 | 1010.3 |
| 20260510080018 | 71 | 153 | 2.6 | 7.0 | 0.00 | 1.71 | 0.00 | 80 | 1010.4 |
| 20260510075018 | 71 | 156 | 2.6 | 7.8 | 0.00 | 1.71 | 0.00 | 80 | 1010.4 |
| 20260510074018 | 71 | 157 | 2.6 | 6.1 | 0.00 | 1.71 | 0.00 | 79 | 1010.5 |
| 20260510073019 | 72 | 158 | 2.6 | 6.1 | 0.00 | 1.71 | 0.00 | 78 | 1010.5 |
| 20260510072018 | 72 | 158 | 2.6 | 6.1 | 0.00 | 1.71 | 0.00 | 77 | 1010.5 |
| 20260510071018 | 73 | 165 | 3.5 | 7.8 | 0.00 | 1.71 | 0.00 | 75 | 1010.5 |
| 20260510070018 | 73 | 173 | 3.5 | 10.4 | 0.00 | 1.71 | 0.00 | 74 | 1010.5 |
| 20260510065019 | 73 | 161 | 3.5 | 7.8 | 0.00 | 1.71 | 0.00 | 73 | 1010.5 |
| 20260510064016 | 74 | 171 | 3.5 | 8.7 | 0.00 | 1.71 | 0.00 | 72 | 1010.4 |
| 20260510063016 | 74 | 164 | 3.5 | 7.0 | 0.00 | 1.71 | 0.00 | 72 | 1010.5 |
| 20260510062016 | 74 | 172 | 4.3 | 7.8 | 0.00 | 1.71 | 0.00 | 71 | 1010.5 |
| 20260510061016 | 74 | 175 | 3.5 | 9.6 | 0.00 | 1.71 | 0.00 | 71 | 1010.5 |
| 20260510060016 | 74 | 174 | 3.5 | 7.0 | 0.00 | 1.71 | 0.00 | 70 | 1010.5 |
| 20260510055016 | 74 | 168 | 3.5 | 10.4 | 0.00 | 1.71 | 0.00 | 70 | 1010.4 |
| 20260510054017 | 74 | 175 | 3.5 | 7.0 | 0.00 | 1.71 | 0.00 | 71 | 1010.4 |
| 20260510053017 | 73 | 174 | 4.3 | 9.6 | 0.00 | 1.71 | 0.00 | 72 | 1010.4 |
| 20260510052017 | 73 | 166 | 3.5 | 7.8 | 0.00 | 1.71 | 0.00 | 74 | 1010.5 |
| 20260510051017 | 73 | 158 | 2.6 | 5.2 | 0.00 | 1.71 | 0.00 | 75 | 1010.5 |
| 20260510050018 | 74 | 160 | 3.5 | 7.8 | 0.00 | 1.71 | 0.00 | 73 | 1010.6 |
| 20260510045037 | 74 | 157 | 2.6 | 7.0 | 0.00 | 1.71 | 1.71 | 72 | 1010.7 |
| 20260510044017 | 75 | 156 | 2.6 | 5.2 | 0.00 | 1.71 | 1.71 | 71 | 1010.8 |
| 20260510043018 | 75 | 152 | 2.6 | 8.7 | 0.00 | 1.71 | 1.71 | 70 | 1010.7 |
| 20260510042018 | 75 | 157 | 2.6 | 6.1 | 0.00 | 1.71 | 1.71 | 70 | 1010.8 |
| 20260510041018 | 75 | 154 | 2.6 | 5.2 | 0.00 | 1.71 | 1.71 | 70 | 1010.8 |
| 20260510040040 | 75 | 157 | 2.6 | 5.2 | 0.00 | 1.71 | 1.71 | 69 | 1010.8 |
| 20260510035019 | 76 | 154 | 2.6 | 5.2 | 0.00 | 1.71 | 1.71 | 69 | 1010.7 |
| 20260510034018 | 76 | 152 | 1.7 | 4.3 | 0.00 | 1.71 | 1.71 | 69 | 1010.6 |
| 20260510033019 | 76 | 155 | 2.6 | 5.2 | 0.00 | 1.71 | 1.71 | 69 | 1010.5 |
| 20260510032019 | 77 | 151 | 2.6 | 6.1 | 0.00 | 1.71 | 1.71 | 69 | 1010.4 |
| 20260510031036 | 77 | 156 | 2.6 | 7.0 | 0.00 | 1.71 | 1.71 | 69 | 1010.4 |
| 20260510030016 | 77 | 151 | 2.6 | 5.2 | 0.00 | 1.71 | 1.71 | 69 | 1010.3 |
| 20260510025016 | 77 | 147 | 2.6 | 4.3 | 0.00 | 1.71 | 1.71 | 69 | 1010.2 |
| 20260510024036 | 77 | 150 | 2.6 | 4.3 | 0.00 | 1.71 | 1.71 | 69 | 1010.1 |
| 20260510023036 | 78 | 152 | 1.7 | 4.3 | 0.00 | 1.71 | 1.71 | 68 | 1010.0 |
| 20260510022016 | 78 | 153 | 1.7 | 4.3 | 0.00 | 1.71 | 1.71 | 67 | 1010.0 |
| 20260510021036 | 79 | 141 | 0.9 | 2.6 | 0.00 | 1.71 | 1.71 | 66 | 1009.9 |
| 20260510020017 | 79 | 150 | 0.9 | 3.5 | 0.00 | 1.71 | 1.71 | 65 | 1009.8 |
| 20260510015017 | 79 | 144 | 0.9 | 3.5 | 0.00 | 1.71 | 1.71 | 64 | 1009.7 |
| 20260510014017 | 80 | 150 | 1.7 | 3.5 | 0.00 | 1.71 | 1.71 | 63 | 1009.5 |
| 20260510013017 | 81 | 140 | 1.7 | 4.3 | 0.00 | 1.71 | 1.71 | 62 | 1009.4 |
| 20260510012017 | 82 | 137 | 0.9 | 3.5 | 0.00 | 1.71 | 1.71 | 61 | 1009.4 |
| 20260510011017 | 83 | 132 | 0.9 | 3.5 | 0.00 | 1.71 | 1.71 | 59 | 1009.4 |
| 20260510010017 | 84 | 128 | 1.7 | 3.5 | 0.00 | 1.71 | 1.71 | 58 | 1009.3 |
| 20260510005018 | 85 | 131 | 1.7 | 4.3 | 0.00 | 1.71 | 1.71 | 56 | 1009.3 |
| 20260510003018 | 86 | 120 | 0.9 | 2.6 | 0.00 | 1.71 | 1.71 | 53 | 1009.2 |
| 20260510002018 | 87 | 125 | 2.6 | 4.3 | 0.00 | 1.71 | 1.71 | 52 | 1009.2 |
| 20260510001018 | 87 | 131 | 1.7 | 6.1 | 0.00 | 1.71 | 1.71 | 51 | 1009.1 |
| 20260510000019 | 88 | 136 | 1.7 | 6.1 | 0.00 | 1.71 | 1.71 | 51 | 1009.1 |
| 20260509235039 | 88 | 116 | 2.6 | 7.0 | 0.00 | 1.71 | 1.71 | 50 | 1009.1 |
| 20260509234016 | 88 | 127 | 1.7 | 3.5 | 0.00 | 1.71 | 1.71 | 51 | 1009.1 |
| 20260509233036 | 88 | 130 | 2.6 | 6.1 | 0.00 | 1.71 | 1.71 | 50 | 1009.1 |
| 20260509232016 | 89 | 140 | 2.6 | 5.2 | 0.00 | 1.71 | 1.71 | 49 | 1009.0 |
| 20260509231016 | 89 | 125 | 1.7 | 4.3 | 0.00 | 1.71 | 1.71 | 47 | 1009.1 |
| 20260509230016 | 89 | 146 | 1.7 | 5.2 | 0.00 | 1.71 | 1.71 | 47 | 1009.1 |
| 20260509225036 | 90 | 120 | 2.6 | 5.2 | 0.00 | 1.71 | 1.71 | 47 | 1009.1 |
| 20260509224016 | 89 | 179 | 0.9 | 4.3 | 0.00 | 1.71 | 1.71 | 44 | 1009.1 |
| 20260509223137 | 89 | 156 | 1.7 | 5.2 | 0.00 | 1.71 | 1.71 | 45 | 1009.1 |
| 20260509222037 | 89 | 151 | 3.5 | 8.7 | 0.00 | 1.71 | 1.71 | 46 | 1009.1 |
| 20260509221017 | 88 | 135 | 2.6 | 5.2 | 0.00 | 1.71 | 1.71 | 45 | 1009.1 |
| 20260509220017 | 88 | 129 | 2.6 | 6.1 | 0.00 | 1.71 | 1.71 | 47 | 1009.2 |
| 20260509215017 | 88 | 118 | 2.6 | 5.2 | 0.00 | 1.71 | 1.71 | 48 | 1009.3 |
| 20260509214017 | 88 | 120 | 2.6 | 6.1 | 0.00 | 1.71 | 1.71 | 48 | 1009.4 |
| 20260509213018 | 88 | 133 | 2.6 | 7.8 | 0.00 | 1.71 | 1.71 | 49 | 1009.5 |
| 20260509212018 | 88 | 138 | 2.6 | 4.3 | 0.00 | 1.71 | 1.71 | 49 | 1009.6 |
| 20260509211018 | 88 | 147 | 2.6 | 7.0 | 0.00 | 1.71 | 1.71 | 49 | 1009.8 |
| 20260509210018 | 88 | 148 | 2.6 | 7.0 | 0.00 | 1.71 | 1.71 | 50 | 1009.9 |
| 20260509204018 | 88 | 166 | 3.5 | 7.8 | 0.00 | 1.71 | 1.71 | 49 | 1010.3 |
| 20260509203018 | 88 | 125 | 2.6 | 6.1 | 0.00 | 1.71 | 1.71 | 50 | 1010.4 |
| 20260509202018 | 87 | 127 | 2.6 | 7.0 | 0.00 | 1.71 | 1.71 | 48 | 1010.5 |
| 20260509201039 | 87 | 171 | 3.5 | 7.0 | 0.00 | 1.71 | 1.71 | 48 | 1010.6 |
| 20260509200016 | 87 | 183 | 2.6 | 6.1 | 0.00 | 1.71 | 1.71 | 46 | 1010.7 |
| 20260509195039 | 87 | 197 | 3.5 | 5.2 | 0.00 | 1.71 | 1.71 | 46 | 1010.9 |
| 20260509194016 | 87 | 138 | 1.7 | 4.3 | 0.00 | 1.71 | 1.71 | 47 | 1010.9 |
| 20260509193036 | 87 | 105 | 1.7 | 5.2 | 0.00 | 1.71 | 1.71 | 47 | 1011.0 |
| 20260509192017 | 87 | 174 | 2.6 | 7.0 | 0.00 | 1.71 | 1.71 | 49 | 1011.1 |
| 20260509191017 | 87 | 125 | 1.7 | 4.3 | 0.00 | 1.71 | 1.71 | 47 | 1011.1 |
| 20260509190017 | 86 | 242 | 1.7 | 3.5 | 0.00 | 1.71 | 1.71 | 47 | 1011.3 |
| 20260509185017 | 85 | 190 | 1.7 | 5.2 | 0.00 | 1.71 | 1.71 | 48 | 1011.4 |
| 20260509184017 | 84 | 251 | 1.7 | 3.5 | 0.00 | 1.71 | 1.71 | 48 | 1011.4 |
| 20260509183037 | 83 | 273 | 1.7 | 4.3 | 0.00 | 1.71 | 1.71 | 49 | 1011.6 |
| 20260509182017 | 83 | 317 | 1.7 | 2.6 | 0.00 | 1.71 | 1.71 | 47 | 1011.7 |
| 20260509181017 | 82 | 309 | 2.6 | 3.5 | 0.00 | 1.71 | 1.71 | 47 | 1011.8 |
| 20260509180017 | 81 | 358 | 1.7 | 2.6 | 0.00 | 1.71 | 1.71 | 51 | 1011.9 |
| 20260509175037 | 81 | 323 | 1.7 | 3.5 | 0.00 | 1.71 | 1.71 | 51 | 1012.1 |
| 20260509173038 | 81 | 353 | 1.7 | 2.6 | 0.00 | 1.71 | 1.71 | 52 | 1012.3 |
| 20260509172018 | 81 | 354 | 1.7 | 2.6 | 0.00 | 1.71 | 1.71 | 52 | 1012.4 |
| 20260509171018 | 81 | 340 | 1.7 | 2.6 | 0.00 | 1.71 | 1.71 | 50 | 1012.4 |
| 20260509170018 | 81 | 349 | 0.9 | 1.7 | 0.00 | 1.71 | 1.71 | 52 | 1012.4 |
| 20260509165018 | 80 | 338 | 0.9 | 1.7 | 0.00 | 1.71 | 1.71 | 54 | 1012.5 |
| 20260509164016 | 79 | 292 | 0.9 | 2.6 | 0.00 | 1.71 | 1.71 | 60 | 1012.5 |
| 20260509163016 | 78 | 307 | 1.7 | 2.6 | 0.00 | 1.71 | 1.71 | 62 | 1012.7 |
| 20260509162016 | 78 | 313 | 1.7 | 2.6 | 0.00 | 1.71 | 1.71 | 66 | 1012.7 |
| 20260509161056 | 77 | 321 | 0.9 | 1.7 | 0.00 | 1.71 | 1.71 | 69 | 1012.8 |
| 20260509160036 | 77 | 325 | 0.9 | 1.7 | 0.00 | 1.71 | 1.71 | 71 | 1012.7 |
| 20260509155016 | 76 | 320 | 0.9 | 1.7 | 0.00 | 1.71 | 1.71 | 72 | 1012.7 |
| 20260509154016 | 76 | 326 | 0.9 | 1.7 | 0.00 | 1.71 | 1.71 | 73 | 1012.7 |
| 20260509153016 | 75 | 338 | 0.9 | 2.6 | 0.00 | 1.71 | 1.71 | 75 | 1012.7 |
| 20260509152017 | 74 | 298 | 0.9 | 1.7 | 0.00 | 1.71 | 1.71 | 75 | 1012.7 |
| 20260509151017 | 72 | 328 | 1.7 | 2.6 | 0.00 | 1.71 | 1.71 | 78 | 1012.7 |
| 20260509150017 | 72 | 309 | 1.7 | 1.7 | 0.00 | 1.71 | 1.71 | 79 | 1012.7 |
| 20260509145017 | 71 | 297 | 1.7 | 1.7 | 0.00 | 1.71 | 1.71 | 79 | 1012.7 |
| 20260509144017 | 69 | 296 | 1.7 | 2.6 | 0.00 | 1.71 | 1.71 | 81 | 1012.8 |
| 20260509143017 | 69 | 306 | 2.6 | 3.5 | 0.00 | 1.71 | 1.71 | 81 | 1012.8 |
| 20260509142018 | 68 | 293 | 1.7 | 2.6 | 0.00 | 1.71 | 1.71 | 82 | 1012.8 |
| 20260509141018 | 68 | 263 | 3.5 | 4.3 | 0.00 | 1.71 | 1.71 | 83 | 1012.9 |
| 20260509140018 | 67 | 263 | 4.3 | 5.2 | 0.00 | 1.71 | 1.71 | 83 | 1012.8 |
| 20260509135018 | 66 | 270 | 2.6 | 3.5 | 0.00 | 1.71 | 1.71 | 84 | 1012.7 |
| 20260509134018 | 66 | 254 | 0.9 | 3.5 | 0.00 | 1.71 | 1.71 | 85 | 1012.7 |
| 20260509133039 | 65 | 300 | 1.7 | 3.5 | 0.00 | 1.71 | 1.71 | 87 | 1012.7 |
| 20260509132018 | 64 | 278 | 3.5 | 4.3 | 0.00 | 1.71 | 1.71 | 88 | 1012.4 |
| 20260509131038 | 64 | 266 | 2.6 | 3.5 | 0.00 | 1.71 | 1.71 | 88 | 1012.3 |
| 20260509130019 | 64 | 255 | 2.6 | 3.5 | 0.00 | 1.71 | 1.71 | 89 | 1012.4 |
| 20260509125016 | 63 | 267 | 2.6 | 3.5 | 0.00 | 1.71 | 1.71 | 91 | 1012.2 |
| 20260509124016 | 63 | 249 | 2.6 | 3.5 | 0.00 | 1.71 | 1.71 | 91 | 1012.1 |
| 20260509123016 | 63 | 182 | 0.9 | 2.6 | 0.00 | 1.71 | 1.71 | 91 | 1012.0 |
| 20260509122016 | 64 | 218 | 1.7 | 3.5 | 0.00 | 1.71 | 1.71 | 91 | 1011.8 |
| 20260509121017 | 64 | 266 | 6.1 | 8.7 | 0.00 | 1.71 | 1.71 | 91 | 1011.4 |
| 20260509120016 | 64 | 275 | 7.8 | 10.4 | 0.00 | 1.71 | 1.71 | 91 | 1011.3 |
| 20260509115019 | 63 | 265 | 7.0 | 8.7 | 0.00 | 1.71 | 1.71 | 91 | 1011.4 |
| 20260509114016 | 63 | 268 | 7.0 | 8.7 | 0.00 | 1.71 | 1.71 | 91 | 1011.4 |
| 20260509113017 | 64 | 265 | 7.0 | 9.6 | 0.00 | 1.71 | 1.71 | 91 | 1011.3 |
| 20260509112017 | 64 | 259 | 6.1 | 9.6 | 0.00 | 1.71 | 1.71 | 91 | 1011.3 |
| 20260509111017 | 64 | 272 | 8.7 | 12.2 | 0.00 | 1.71 | 1.71 | 91 | 1010.9 |
| 20260509110017 | 64 | 265 | 9.6 | 13.0 | 0.01 | 1.71 | 1.71 | 89 | 1010.7 |
| 20260509105017 | 65 | 273 | 9.6 | 13.9 | 0.01 | 1.71 | 1.71 | 88 | 1010.7 |
| 20260509104017 | 64 | 253 | 8.7 | 12.2 | 0.02 | 1.71 | 1.71 | 87 | 1010.6 |
| 20260509103016 | 65 | 250 | 7.8 | 13.0 | 0.03 | 1.71 | 1.71 | 85 | 1010.6 |
| 20260509102016 | 64 | 258 | 10.4 | 14.8 | 0.03 | 1.71 | 1.71 | 89 | 1010.3 |
| 20260509101036 | 64 | 300 | 12.2 | 15.6 | 0.03 | 1.71 | 1.71 | 89 | 1010.1 |
| 20260509100017 | 63 | 336 | 7.0 | 15.6 | 0.03 | 1.70 | 1.70 | 89 | 1010.3 |